Tracking 19562 objects as of 24-Mar-2019
HD Live streaming from Space Station
objects crossing your sky now

APRIZESAT 7

Track APRIZESAT 7 now!
10-day predictions
APRIZESAT 7 is classified as:


NORAD ID: 39416
Int'l Code: 2013-066A
Perigee: 596.5 km
Apogee: 652.1 km
Inclination: 97.6 °
Period: 97.0 minutes
Semi major axis: 6995 km
RCS: 14.8953 m2 (large)
Launch date: November 21, 2013
Source: United States (US)
Launch site: Orenburg, Russia (OREN)
aabbcc
Your satellite tracking list
Your tracking list is empty




NASA's NSSDC Master Catalog

Two Line Element Set (TLE):
1 39416U 13066A   19082.85706980  .00000057  00000-0  13036-4 0  9991
2 39416  97.5536 111.5803 0039771 292.8344  66.8673 14.83869855288829
Source of the keplerian elements: AFSPC